Regional Weather Roundup
Issued by NWS Midland/Odessa, TX

Skip options and go directly to product.
Home | Oldest Version | Previous Version | Current Version | All | Graphics & Text | Save Text | Print | Product List | Glossary On

Skip product version selection by date and time.   
138
ASUS44 KMAF 281310
RWRMAF
MIDLAND AREA WEATHER ROUNDUP
NATIONAL WEATHER SERVICE MIDLAND TX
800 AM CDT SAT MAY 28 2016

...IN SOUTHWEST TEXAS AND SOUTHEAST NEW MEXICO...

CITY           SKY/WX    TMP DP  RH WIND       PRES   REMARKS
ALPINE         SUNNY     59  24  25 SW5       30.10R
ANDREWS        FAIR      62  32  32 NW3       29.96R
ARTESIA        SUNNY     57  37  47 N9        30.00R
BIG SPRING     SUNNY     60  46  59 SE5       29.97R
CARLSBAD       SUNNY     63  30  28 NW12      29.97R
DRYDEN           N/A     68  64  87 NE6       29.92R
FORT STOCKTON  SUNNY     63  25  23 SW9       29.95R
GUAD PASS      NOT AVBL
HOBBS          SUNNY     55  37  50 N8        30.01R
MARFA          SUNNY     54  20  26 N6        30.08R
MIDLAND AIRPK  SUNNY     67  24  19 CALM      29.96R
MIDLAND INTL   SUNNY     68  21  16 SW6       29.96R
ODESSA         SUNNY     64  20  18 S5        29.97R
PECOS          SUNNY     61  20  20 W6        29.95R
PRESIDIO       FAIR      67  20  16 CALM      29.95R
SEMINOLE       SUNNY     59  43  55 NE9       29.99R
SNYDER           N/A     61  56  84 N3        29.96R
WINK           SUNNY     58  23  26 E3        29.95R
$$
...OTHER STATIONS IN TEXAS...

CITY           SKY/WX    TMP DP  RH WIND       PRES   REMARKS
ABILENE        SUNNY     68  63  84 E3        29.93R
AMARILLO       SUNNY     56  46  69 N5        30.01R
AUSTIN         CLOUDY    68  67  96 CALM      29.91R FOG
BROWNSVILLE    SUNNY     81  77  88 SE21G29   29.84R
CORPUS CHRISTI PTSUNNY   80  76  87 SE17      29.88R
DALLAS FTW     LGT RAIN  68  64  87 S5        29.91R FOG
DEL RIO        CLOUDY    71  70  96 NE3       29.88R FOG
EL PASO        SUNNY     62  17  17 S7        29.98R
HOUSTON INT    SUNNY     70  68  93 S6        29.90R
LUBBOCK        MOSUNNY   59  45  59 NE12      29.98R
SAN ANGELO     SUNNY     67  65  93 W3        29.92R FOG
SAN ANTONIO    CLOUDY    74  68  81 VRB3      29.92R
WACO           CLOUDY    67  65  93 S6        29.92R
WICHITA FALLS  NOT AVBL
$$
...OTHER LOCATIONS IN NEW MEXICO...

CITY           SKY/WX    TMP DP  RH WIND       PRES   REMARKS
ALAMAGORDO     SUNNY     50  25  37 SE6       30.01R
ALBUQUERQUE    SUNNY     52  30  43 N8        30.07R
CANNON AFB     SUNNY     55  44  66 NE8       30.03R
CLOVIS         SUNNY     54  43  66 N8        30.03R
HOLLOMAN AFB   SUNNY     56  19  23 SE6       29.99R
ROSWELL        SUNNY     59  37  44 N10       30.00R
RUIDOSO          N/A     54  23  30 W5        30.15R
SANTA FE       SUNNY     45  31  58 NE7       30.11R
TRUTH OR CONSE SUNNY     57  25  29 NW7       30.02R
TUCUMCARI      SUNNY     54  43  66 W3        30.03R
$$

USA.gov is the U.S. government's official web portal to all federal, state and local government web resources and services.